Weather History for Fort Simpson, NT

Change the Weather History Date:

Sunday, December 8, 2013

  Actual Average Record
Temperature  
Mean Temperature -0 °F -  
Max Temperature 17 °F - - ()
Min Temperature -18 °F - - ()
Degree Days  
Heating Degree Days 66    
Moisture  
Dew Point -6 °F    
Average Humidity 84    
Maximum Humidity 96    
Minimum Humidity 70    
Precipitation  
Precipitation 0.01 in - - ()
Sea Level Pressure  
Sea Level Pressure 30.13 in    
Wind  
Wind Speed 3 mph ()    
Max Wind Speed 9 mph    
Max Gust Speed -    
T = Trace of Precipitation, MM = Missing Value Source: Averaged Metar Reports

Daily Weather History Graph

Daily Weather History Graph

Search for Another Location

Airport:

Trip Planner

Search our weather history database for the weather conditions in past years. The results will help you decide how hot, cold, wet, or windy it might be!

Date:

Astronomy

Dec. 08, 2013 Rise Set
Actual Time 10:10 AM MST 3:42 PM MST
Civil Twilight 9:08 AM MST 4:45 PM MST
Nautical Twilight 8:08 AM MST 5:45 PM MST
Astronomical Twilight 7:13 AM MST 6:40 PM MST
Moon 12:59 PM MST (12/8) No Moon Set
Length of Visible Light 7h 37m
Length of Day
5h 32m
Waxing Crescent, 40% of the Moon is Illuminated
Dec 8
Waxing Crescent
Dec 9
First Quarter
Dec 17
Full
Dec 25
Last Quarter
Jan 1
New

Hourly Weather History & Observations

Time (MST) Temp. Windchill Dew Point Humidity Pressure Visibility Wind Dir Wind Speed Gust Speed Precip Events Conditions
12:00 AM -12.8 °F -28.4 °F -17.1 °F 81% 30.38 in - WNW 6.9 mph - N/A   Unknown
1:00 AM -8.1 °F -17.1 °F -11.7 °F 84% 30.38 in - NNW 3.5 mph - N/A   Unknown
2:00 AM -14.4 °F - -18.9 °F 80% 30.37 in - WNW 2.3 mph - N/A   Unknown
3:00 AM -15.9 °F - -20.6 °F 79% 30.36 in - SE 1.2 mph - N/A   Unknown
4:00 AM -17.0 °F - -21.8 °F 79% 30.33 in - North 2.3 mph - N/A   Unknown
5:00 AM -14 °F - -18 °F 70% 30.30 in - SSE 1.2 mph - -  
5:00 AM -13.9 °F - -18.4 °F 80% 30.30 in - SSE 1.2 mph - N/A   Unknown
6:00 AM -15.3 °F - -20.0 °F 79% 30.27 in - Calm Calm - N/A   Unknown
7:00 AM -8.7 °F -20.0 °F -12.5 °F 83% 30.23 in - ESE 4.6 mph - N/A   Unknown
8:00 AM -6.9 °F -19.7 °F -10.5 °F 84% 30.21 in - ESE 5.8 mph - N/A   Unknown
9:00 AM -4.2 °F -12.6 °F -7.6 °F 85% 30.15 in - ESE 3.5 mph - N/A   Unknown
10:00 AM -2.0 °F -15.4 °F -5.3 °F 86% 30.09 in - ESE 6.9 mph - N/A   Unknown
11:00 AM -2 °F - -6 °F 77% 30.04 in - ESE 9.2 mph - -  
11:00 AM -2.2 °F -18.0 °F -5.6 °F 85% 30.04 in - ESE 9.2 mph - N/A   Unknown
12:00 PM -2.0 °F -13.9 °F -5.3 °F 86% 30.01 in - ESE 5.8 mph - N/A   Unknown
1:00 PM -1.8 °F -15.2 °F -5.1 °F 86% 29.96 in - ESE 6.9 mph - 0.01 in   Unknown
2:00 PM -0.6 °F -10.6 °F -3.8 °F 86% 30.02 in - East 4.6 mph - N/A   Unknown
3:00 PM 0.5 °F - -2.6 °F 87% 30.01 in - SE 2.3 mph - N/A   Unknown
4:00 PM 0.7 °F - -2.4 °F 87% 30.02 in - Calm Calm - N/A   Unknown
5:00 PM 1 °F - -2 °F 80% 30.04 in - NW 2.3 mph - -  
5:00 PM 1.0 °F - -2.0 °F 87% 30.04 in - NW 2.3 mph - N/A   Unknown
6:00 PM 1.4 °F - -1.7 °F 87% 30.03 in - SW 2.3 mph - N/A   Unknown
7:00 PM 1.9 °F -5.6 °F -0.9 °F 88% 30.04 in - WSW 3.5 mph - N/A   Unknown
8:00 PM 3.4 °F - 0.7 °F 89% 30.02 in - SSW 2.3 mph - N/A   Unknown
9:00 PM 4.1 °F - 1.6 °F 89% 30.02 in - South 1.2 mph - N/A   Unknown
10:00 PM 7.5 °F - 5.5 °F 92% 30.00 in - South 2.3 mph - N/A   Unknown
11:00 PM 18 °F - 17 °F 93% 29.97 in - NW 5.8 mph - -  
11:00 PM 17.8 °F 9.6 °F 16.9 °F 96% 29.97 in - NW 5.8 mph - N/A   Unknown